Location: Tamazert
(32.6352°N, 5.2072°W)
Time: 11:16:20
(UTC+00:00)

Vanguard 1 Rocket - All Passes

Search period start: 05 October 2022 00:00
Search period end: 15 October 2022 00:00
Orbit: 650 x 4225 km, 34.3° (Epoch: 04 October)

Date Brightness Start Highest point End Pass type
(mag) Time Alt. Az. Time Alt. Az. Time Alt. Az.
05 Oct - 00:56:08 10° WNW 01:05:50 54° SSW 01:11:16 10° SE visible
05 Oct - 16:02:51 10° SSW 16:25:25 39° SE 16:43:02 10° E daylight
05 Oct - 18:31:35 10° SW 18:56:42 72° SSE 19:11:15 10° ENE visible
05 Oct - 21:06:32 10° W 21:26:48 84° N 21:36:44 10° E visible
05 Oct - 23:41:21 10° WNW 23:54:30 79° SSW 00:01:06 10° ESE visible
06 Oct - 02:13:32 10° W 02:18:50 20° SW 02:22:42 10° S night (unlit)
06 Oct - 14:51:58 10° S 15:10:56 27° SE 15:27:57 10° E daylight
06 Oct - 17:16:49 10° SW 17:42:10 60° SSE 17:59:11 10° ENE daylight
06 Oct - 19:49:42 10° WSW 20:13:17 90° SSE 20:25:35 10° E visible
06 Oct - 22:25:35 10° W 22:42:25 87° N 22:50:33 10° E visible
07 Oct - 00:58:47 10° WNW 01:08:17 42° SW 01:13:46 10° SE visible
07 Oct - 13:44:40 10° SSE 13:56:45 15° SE 14:08:42 10° ESE daylight
07 Oct - 16:03:31 10° SSW 16:27:25 46° SE 16:46:13 10° ENE daylight
07 Oct - 18:33:26 10° WSW 18:59:04 80° SSE 19:14:03 10° ENE visible
07 Oct - 21:08:58 10° W 21:29:33 84° N 21:39:39 10° E visible
07 Oct - 23:43:48 10° WNW 23:57:08 68° SSW 00:03:53 10° ESE visible
08 Oct - 02:17:23 10° W 02:21:00 14° SW 02:23:55 10° SSW night (unlit)
08 Oct - 14:51:55 10° SSW 15:12:48 34° SE 15:31:49 10° E daylight
08 Oct - 17:18:18 10° SW 17:44:20 68° SSE 18:02:00 10° ENE daylight
08 Oct - 19:52:00 10° W 20:15:54 87° N 20:28:27 10° E visible
08 Oct - 22:28:01 10° WNW 22:45:09 87° SSW 22:53:26 10° ESE visible
09 Oct - 01:01:33 10° W 01:10:35 32° SW 01:16:02 10° SSE visible
09 Oct - 13:42:41 10° S 13:58:37 21° SE 14:14:43 10° E daylight
09 Oct - 16:04:36 10° SW 16:29:22 54° SE 16:49:10 10° ENE daylight
09 Oct - 18:35:29 10° WSW 19:01:30 86° SSE 19:16:51 10° ENE visible
09 Oct - 21:11:24 10° W 21:32:18 85° N 21:42:35 10° E visible
09 Oct - 23:46:15 10° WNW 23:59:38 57° SSW 00:06:30 10° SE visible
10 Oct - 12:42:54 10° SE 12:44:52 10° SE 12:46:51 10° ESE daylight
10 Oct - 14:52:28 10° SSW 15:14:35 41° SE 15:35:09 10° E daylight
10 Oct - 17:20:03 10° SW 17:46:32 75° SSE 18:04:45 10° ENE daylight
10 Oct - 19:54:24 10° W 20:18:33 85° N 20:31:20 10° E visible
10 Oct - 22:30:24 10° WNW 22:47:48 79° SSW 22:56:15 10° ESE visible
11 Oct - 01:04:34 10° W 01:12:43 25° SW 01:17:59 10° S night (unlit)
11 Oct - 13:42:12 10° S 14:00:19 28° SE 14:19:09 10° E daylight
11 Oct - 16:06:01 10° SW 16:31:18 62° SSE 16:51:57 10° ENE daylight
11 Oct - 18:37:44 10° WSW 19:03:59 90° NNW 19:19:39 10° E visible
11 Oct - 21:13:48 10° W 21:35:00 89° N 21:45:28 10° ESE visible
11 Oct - 23:48:46 10° WNW 00:01:57 46° SW 00:08:58 10° SE visible
12 Oct - 12:35:24 10° SSE 12:46:40 16° SE 12:58:51 10° E daylight
12 Oct - 14:53:28 10° SSW 15:16:18 49° SE 15:38:10 10° ENE daylight
12 Oct - 17:22:03 10° WSW 17:48:46 82° SSE 18:07:28 10° ENE daylight
12 Oct - 19:56:50 10° W 20:21:13 85° N 20:34:13 10° E visible
12 Oct - 22:32:45 10° WNW 22:50:19 69° SSW 22:58:58 10° SE visible
13 Oct - 01:08:02 10° W 01:14:43 18° SW 01:19:28 10° S night (unlit)
13 Oct - 13:42:33 10° SSW 14:01:54 35° SE 14:22:49 10° E daylight
13 Oct - 16:07:44 10° SW 16:33:17 70° SSE 16:54:39 10° ENE daylight
13 Oct - 18:40:05 10° W 19:06:31 87° N 19:22:28 10° E visible
13 Oct - 21:16:10 10° WNW 21:37:38 86° SSW 21:48:18 10° ESE visible
13 Oct - 23:51:23 10° WNW 00:04:06 37° SW 00:11:13 10° SSE visible
14 Oct - 12:33:54 10° S 12:48:15 21° SE 13:04:39 10° E daylight
14 Oct - 14:54:50 10° SW 15:18:01 56° SE 15:40:57 10° ENE daylight
14 Oct - 17:24:15 10° WSW 17:51:05 87° SSE 18:10:12 10° ENE daylight
14 Oct - 19:59:16 10° W 20:23:53 87° N 20:37:06 10° E visible
14 Oct - 22:35:05 10° WNW 22:52:40 60° SSW 23:01:32 10° SE visible
